Wise, VA

11:51 PM EST on November 19, 2019 (GMT -0500)
Lonesome Pine

Weather History for KLNP - September, 2019

Change the Weather History Date:

Sunday, September 15, 2019

  Actual Average Record
Temperature  
Mean Temperature 72 °F -  
Max Temperature 86 °F 72 °F 87 °F (1998)
Min Temperature 59 °F 53 °F 42 °F (2001)
Cooling Degree Days 8    
Growing Degree Days 22 (Base 50)    
Moisture  
Dew Point 43 °F    
Average Humidity 41    
Maximum Humidity 77    
Minimum Humidity 13    
Precipitation  
Precipitation 0.00 in - - ()
Sea Level Pressure  
Sea Level Pressure 30.27 in    
Wind  
Wind Speed 2 mph (NNE)    
Max Wind Speed 8 mph    
Max Gust Speed -    
Visibility 10 miles    
Events      
Averages and records for this station are not official NWS values.
T = Trace of Precipitation, MM = Missing Value Source: NWS Daily Summary

Daily Weather History Graph

Daily Weather History Graph

Search for Another Location

Airport or City:

Astronomy

Sep. 15, 2019 Rise Set
Actual Time 7:12 AM EDT 7:38 PM EDT
Civil Twilight 6:46 AM EDT 8:04 PM EDT
Nautical Twilight 6:15 AM EDT 8:34 PM EDT
Astronomical Twilight 5:44 AM EDT 9:05 PM EDT
Moon 8:46 PM EDT (9/15) 8:20 AM EDT (9/15)
Length of Visible Light 13h 18m
Length of Day
12h 25m
Full, 98% of the Moon is Illuminated
Sep 15
Full
Sep 21
Last Quarter
Sep 28
New
Oct 5
First Quarter
Oct 13
Full

Hourly Weather History & Observations

Time (EDT) Temp. Dew Point Humidity Pressure Visibility Wind Dir Wind Speed Gust Speed Precip Events Conditions
12:15 AM 68.0 °F 51.8 °F 56% 30.31 in 10.0 mi North 3.5 mph - N/A   Clear
12:35 AM 68.0 °F 50.0 °F 52% 30.31 in 10.0 mi Calm Calm - N/A   Clear
12:55 AM 64.4 °F 51.8 °F 64% 30.30 in 10.0 mi Calm Calm - N/A   Clear
1:15 AM 66.2 °F 50.0 °F 56% 30.30 in 10.0 mi North 3.5 mph - N/A   Clear
1:35 AM 64.4 °F 51.8 °F 64% 30.31 in 10.0 mi Calm Calm - N/A   Clear
1:55 AM 62.6 °F 51.8 °F 68% 30.31 in 10.0 mi Calm Calm - N/A   Clear
2:15 AM 64.4 °F 51.8 °F 64% 30.31 in 10.0 mi Calm Calm - N/A   Clear
2:35 AM 64.4 °F 51.8 °F 64% 30.31 in 10.0 mi North 3.5 mph - N/A   Clear
2:55 AM 60.8 °F 51.8 °F 72% 30.30 in 10.0 mi Calm Calm - N/A   Clear
3:15 AM 62.6 °F 51.8 °F 68% 30.30 in 10.0 mi Calm Calm - N/A   Clear
3:35 AM 60.8 °F 51.8 °F 72% 30.29 in 10.0 mi Calm Calm - N/A   Clear
3:55 AM 62.6 °F 51.8 °F 68% 30.29 in 10.0 mi Calm Calm - N/A   Clear
4:15 AM 59.0 °F 51.8 °F 77% 30.29 in 10.0 mi Calm Calm - N/A   Clear
4:40 AM 60.8 °F 51.8 °F 72% 30.29 in 10.0 mi Calm Calm - N/A   Clear
4:55 AM 60.8 °F 51.8 °F 72% 30.29 in 10.0 mi Calm Calm - N/A   Clear
5:35 AM 62.6 °F 51.8 °F 68% 30.29 in 10.0 mi Calm Calm - N/A   Clear
5:55 AM 62.6 °F 51.8 °F 68% 30.29 in 10.0 mi Calm Calm - N/A   Clear
6:15 AM 62.6 °F 53.6 °F 72% 30.29 in 10.0 mi Calm Calm - N/A   Clear
6:35 AM 62.6 °F 51.8 °F 68% 30.29 in 10.0 mi Calm Calm - N/A   Clear
6:55 AM 62.6 °F 51.8 °F 68% 30.29 in 10.0 mi Calm Calm - N/A   Clear
7:35 AM 59.0 °F 51.8 °F 77% 30.29 in 10.0 mi Calm Calm - N/A   Clear
7:55 AM 62.6 °F 51.8 °F 68% 30.29 in 10.0 mi Calm Calm - N/A   Clear
8:15 AM 60.8 °F 51.8 °F 72% 30.29 in 10.0 mi Calm Calm - N/A   Clear
8:35 AM 64.4 °F 51.8 °F 64% 30.30 in 10.0 mi Calm Calm - N/A   Clear
8:55 AM 66.2 °F 51.8 °F 60% 30.30 in 10.0 mi Calm Calm - N/A   Clear
9:15 AM 68.0 °F 51.8 °F 56% 30.30 in 10.0 mi Calm Calm - N/A   Clear
9:35 AM 69.8 °F 51.8 °F 53% 30.31 in 10.0 mi Calm Calm - N/A   Clear
9:55 AM 71.6 °F 51.8 °F 50% 30.31 in 10.0 mi Calm Calm - N/A   Clear
10:15 AM 71.6 °F 51.8 °F 50% 30.31 in 10.0 mi Calm Calm - N/A   Clear
10:35 AM 73.4 °F 51.8 °F 47% 30.31 in 10.0 mi Calm Calm - N/A   Clear
10:55 AM 73.4 °F 50.0 °F 44% 30.31 in 10.0 mi Calm Calm - N/A   Clear
11:15 AM 77.0 °F 44.6 °F 32% 30.31 in 10.0 mi Calm Calm - N/A   Clear
11:35 AM 77.0 °F 44.6 °F 32% 30.31 in 10.0 mi East 3.5 mph - N/A   Clear
11:55 AM 78.8 °F 33.8 °F 20% 30.30 in 10.0 mi Calm Calm - N/A   Clear
12:15 PM 80.6 °F 32.0 °F 17% 30.30 in 10.0 mi NNE 3.5 mph - N/A   Clear
12:35 PM 80.6 °F 30.2 °F 16% 30.29 in 10.0 mi ENE 4.6 mph - N/A   Clear
12:55 PM 82.4 °F 28.4 °F 14% 30.29 in 10.0 mi North 3.5 mph - N/A   Clear
1:15 PM 82.4 °F 28.4 °F 14% 30.29 in 10.0 mi NNE 4.6 mph - N/A   Clear
1:35 PM 82.4 °F 28.4 °F 14% 30.28 in 10.0 mi East 4.6 mph - N/A   Clear
1:55 PM 84.2 °F 28.4 °F 13% 30.28 in 10.0 mi North 5.8 mph - N/A   Clear
2:15 PM 86.0 °F 30.2 °F 13% 30.27 in 10.0 mi West 3.5 mph - N/A   Clear
2:35 PM 86.0 °F 30.2 °F 13% 30.26 in 10.0 mi NW 4.6 mph - N/A   Clear
2:55 PM 86.0 °F 32.0 °F 14% 30.26 in 10.0 mi NNW 5.8 mph - N/A   Clear
3:15 PM 86.0 °F 33.8 °F 15% 30.25 in 10.0 mi North 5.8 mph - N/A   Clear
3:35 PM 86.0 °F 35.6 °F 17% 30.24 in 10.0 mi West 3.5 mph - N/A   Clear
3:55 PM 86.0 °F 35.6 °F 17% 30.24 in 10.0 mi ENE 4.6 mph - N/A   Clear
4:15 PM 86.0 °F 35.6 °F 17% 30.23 in 10.0 mi NNE 3.5 mph - N/A   Clear
4:35 PM 86.0 °F 35.6 °F 17% 30.23 in 10.0 mi NE 8.1 mph - N/A   Clear
4:55 PM 86.0 °F 33.8 °F 15% 30.22 in 10.0 mi NE 5.8 mph - N/A   Clear
5:15 PM 86.0 °F 33.8 °F 15% 30.22 in 10.0 mi NE 6.9 mph - N/A   Clear
5:35 PM 86.0 °F 32.0 °F 14% 30.21 in 10.0 mi NNE 5.8 mph - N/A   Clear
5:55 PM 84.2 °F 32.0 °F 15% 30.21 in 10.0 mi NNE 5.8 mph - N/A   Clear
6:15 PM 84.2 °F 35.6 °F 18% 30.21 in 10.0 mi NE 4.6 mph - N/A   Clear
6:35 PM 82.4 °F 37.4 °F 20% 30.21 in 10.0 mi NE 3.5 mph - N/A   Clear
6:55 PM 82.4 °F 37.4 °F 20% 30.21 in 10.0 mi NE 3.5 mph - N/A   Clear
7:15 PM 80.6 °F 37.4 °F 21% 30.21 in 10.0 mi NE 3.5 mph - N/A   Clear
7:35 PM 80.6 °F 37.4 °F 21% 30.22 in 10.0 mi ENE 3.5 mph - N/A   Clear
7:55 PM 78.8 °F 39.2 °F 24% 30.21 in 10.0 mi Calm Calm - N/A   Clear
8:15 PM 78.8 °F 37.4 °F 23% 30.21 in 10.0 mi Calm Calm - N/A   Clear
8:35 PM 77.0 °F 37.4 °F 24% 30.22 in 10.0 mi Calm Calm - N/A   Clear
8:55 PM 77.0 °F 37.4 °F 24% 30.22 in 10.0 mi North 3.5 mph - N/A   Clear
9:15 PM 75.2 °F 37.4 °F 25% 30.23 in 10.0 mi Calm Calm - N/A   Clear
9:35 PM 69.8 °F 41.0 °F 35% 30.23 in 10.0 mi Calm Calm - N/A   Clear
10:15 PM 69.8 °F 41.0 °F 35% 30.23 in 10.0 mi Calm Calm - N/A   Clear
10:35 PM 68.0 °F 42.8 °F 40% 30.23 in 10.0 mi Calm Calm - N/A   Clear
10:55 PM 69.8 °F 41.0 °F 35% 30.23 in 10.0 mi Calm Calm - N/A   Clear
11:15 PM 68.0 °F 42.8 °F 40% 30.23 in 10.0 mi Calm Calm - N/A   Clear
11:35 PM 69.8 °F 41.0 °F 35% 30.23 in 10.0 mi Calm Calm - N/A   Clear
11:55 PM 68.0 °F 41.0 °F 37% 30.23 in 10.0 mi Calm Calm - N/A   Clear